Location: CNYAC Observatory
(43.2150°N, 74.9500°W)
Time: 16:34:33
(UTC-04:00)

Daily predictions for brighter satellites

Satellite Brightness Start Highest point End
(mag) Time Altitude Azimuth Time Altitude Azimuth Time Altitude Azimuth
Cosmos 1709 Rocket 4.1 20:45:34 10° N 20:51:54 88° W 20:58:05 10° S
Iridium 4 Rocket 3.7 20:49:37 10° N 20:54:34 82° W 20:59:58 10° S
Envisat 3.0 20:51:50 10° SSE 20:56:54 80° ENE 21:02:01 10° N
Spot 1 4.2 20:55:12 10° SSE 20:59:46 79° ENE 21:04:07 10° NNW
ASTEX 1 4.2 20:58:07 10° SE 21:02:32 34° ENE 21:06:56 10° NNE
Aureole 3 Rocket 4.2 20:56:57 10° SSE 21:03:14 43° E 21:07:50 10° NNE
Tiangong 2 2.7 21:08:33 10° SSW 21:10:48 18° SSE 21:13:03 10° ESE
Aureole 1 Rocket 3.5 21:09:58 10° SSE 21:12:40 22° ESE 21:15:08 10° NE
NOSS 2-2 (E) 3.4 21:09:42 10° SSW 21:13:41 67° ESE 21:18:20 10° NE
DNEPR-1 R/B 4.1 21:12:07 10° NNW 21:16:14 47° NE 21:20:18 12° SE
SL-08 ROCKET BODY 4.5 21:11:54 10° N 21:18:05 80° E 21:24:18 10° S
Meteor 2-4 Rocket 4.1 21:15:20 10° SSE 21:20:39 45° E 21:26:08 10° NNE
ISS -2.4 21:20:49 10° S 21:23:15 19° SE 21:25:40 10° E
USA 186 4.2 21:20:44 10° SSW 21:23:18 21° W 21:25:50 10° NW
Cosmos 1666 2.9 21:19:52 10° N 21:23:32 52° ENE 21:26:56 12° SSE
Meteor 2-13 Rocket 4.4 21:19:25 10° N 21:25:30 71° E 21:31:32 10° SSE
OAO 2 Rocket 4.2 21:23:07 10° SW 21:27:22 29° S 21:31:02 13° ESE
Cosmos 923 Rocket 4.0 21:22:45 10° SSW 21:28:03 75° ESE 21:33:22 10° NNE
Cosmos 2184 Rocket 4.0 21:25:37 10° N 21:32:01 80° E 21:38:18 10° S
Cosmos 2074 Rocket 4.0 21:25:57 10° N 21:32:13 83° E 21:38:30 10° S
CZ-3A R/B 2.5 21:30:28 10° S 21:33:08 16° SSE 21:33:08 16° SSE
Cosmos 1536 Rocket 4.1 21:29:02 10° SSW 21:33:18 61° W 21:37:36 10° N
Cosmos 1437 3.7 21:32:20 10° SSW 21:35:27 48° WNW 21:38:36 10° N
CZ-4B DEB 4.0 21:32:48 10° SSW 21:35:36 35° W 21:38:24 10° NNW
Helios 1A 4.3 21:31:49 10° SSW 21:35:45 38° W 21:39:42 10° NNW
Lacrosse 5 rocket 4.4 21:35:04 10° NW 21:37:55 16° N 21:40:47 10° NNE
Meteor 1-29 4.1 21:36:11 10° N 21:39:26 45° WNW 21:42:40 10° SSW
USA 245 3.6 21:38:45 20° ESE 21:39:49 25° ENE 21:41:56 10° NNE
Intercosmos 24 4.3 21:36:52 10° N 21:40:51 43° ENE 21:43:05 19° SE
Meteor 1-19 Rocket 4.3 21:36:01 10° S 21:41:51 86° W 21:47:38 10° N
YAOGAN 11 4.3 21:40:59 17° SE 21:44:10 55° ENE 21:48:24 10° N
Cosmos 1656 Rocket 4.0 21:39:21 10° NNW 21:44:44 62° WSW 21:49:49 12° S
YAOGAN 6 3.2 21:42:18 10° S 21:45:42 51° W 21:49:08 10° NNW
ERS-1 Rocket 3.0 21:41:29 11° SSE 21:46:23 82° WSW 21:51:27 10° NNW
Meteor 1-23 Rocket 4.2 21:44:20 10° S 21:49:47 62° E 21:55:19 10° NNE
MetOp-A 4.1 21:45:09 14° SSE 21:49:49 81° ENE 21:55:12 10° NNW
Cosmos 1726 Rocket 4.5 21:46:19 10° NNE 21:50:13 31° ENE 21:52:23 20° ESE
MOS 1-B Rocket 4.0 21:46:02 14° SSE 21:51:00 78° ENE 21:57:22 10° NNW
Cosmos 1818 4.5 21:46:22 10° SW 21:51:40 52° NW 21:57:02 10° NNE
Cosmos 405 Rocket 3.5 21:48:50 10° SSW 21:52:29 51° WNW 21:56:14 10° N
GENESIS II 4.2 21:48:42 10° NNW 21:52:42 86° NE 21:55:01 23° SE
H-2A R/B 2.5 21:52:51 20° SE 21:55:56 42° ENE 22:00:39 10° N
Cosmos 1980 Rocket 4.4 21:53:27 10° NNE 21:55:59 13° NE 21:58:29 10° ENE
Cosmos 2058 Rocket 4.2 21:52:48 10° NNE 21:56:37 28° ENE 21:58:34 20° ESE
NOSS 2-2 (D) 4.2 21:52:46 10° SW 21:56:44 57° NW 22:01:24 10° NNE
Meteor 1-15 Rocket 4.3 21:51:53 10° N 21:57:29 65° ENE 22:01:26 19° SSE
Cosmos 1943 Rocket 4.3 21:56:24 10° NW 22:00:23 20° W 22:04:20 10° SW
Cosmos 2112 Rocket 4.0 21:55:39 10° SSW 22:00:52 86° WNW 22:06:06 10° NNE
Cosmos 192 4.2 21:56:38 10° SSW 22:01:32 80° ESE 22:06:27 10° NNE
Cosmos 1025 Rocket 2.9 21:58:34 14° S 22:02:14 77° E 22:06:31 10° NNE
CENTAUR R/B 3.6 21:54:36 10° NW 22:02:21 57° WSW 22:09:18 15° SSE
Cosmos 1441 Rocket 3.3 22:01:28 10° SSW 22:05:12 71° W 22:08:57 10° N
Cosmos 1624 Rocket 4.2 22:02:39 10° NNW 22:07:54 61° ENE 22:10:57 25° SE
Nadezhda 1 Rocket 4.2 22:02:03 10° SSW 22:08:24 77° W 22:14:50 10° N
PSLV R/B 3.2 22:06:57 10° W 22:10:00 52° S 22:10:40 42° SE
Cosmos 2154 Rocket 4.0 22:09:15 10° N 22:15:38 88° W 22:20:26 19° S
SL-08 RB Rocket 3.6 22:14:43 26° SSE 22:17:16 88° ENE 22:21:46 10° NNW
Nimbus 7 Rocket 4.4 22:11:13 10° NNE 22:17:18 69° ESE 22:22:27 15° S
ARGOS 3.2 22:13:34 20° S 22:17:24 78° WSW 22:22:52 10° NNW
COSMOS 2406 4.0 22:11:56 10° SW 22:17:32 54° WNW 22:23:09 10° NNE
SL-27 R/B 3.3 22:15:31 10° SSW 22:19:06 54° WNW 22:22:43 10° N
SL-8 Rocket 4.4 22:13:47 10° N 22:19:48 47° ENE 22:23:03 26° SE
Landsat 7 4.0 22:21:41 30° SE 22:23:52 58° ENE 22:28:33 10° N
SPOT 5 2.9 22:23:05 24° S 22:25:36 61° WSW 22:29:55 10° NNW
Cosmos 2278 4.0 22:20:16 10° NNW 22:25:54 55° ENE 22:28:45 28° SE
H-2A R/B 2.8 22:24:49 29° ESE 22:26:30 41° ENE 22:30:46 10° N
Cosmos 2056 Rocket 3.4 22:21:27 10° NNW 22:26:40 82° ENE 22:29:09 31° SSE
Cosmos 2082 Rocket 3.0 22:28:03 28° SE 22:29:24 32° ESE 22:34:21 10° NE
Iridium 82 4.5 22:33:12 10° N 22:36:45 70° E 22:37:24 54° SSE
Cosmos 1626 Rocket 4.5 22:37:18 30° E 22:37:38 30° E 22:41:25 10° NNE
CZ-4B R/B 4.4 22:34:00 10° NE 22:38:26 30° E 22:39:09 29° ESE
Terra 2.0 22:37:11 36° SE 22:38:55 57° ENE 22:43:36 10° N
Cosmos 839 Rocket 4.3 22:34:10 10° NNW 22:40:41 85° ENE 22:44:54 29° SE
Cosmos 2341 Rocket 4.2 22:37:22 10° NNW 22:43:42 74° W 22:47:39 25° S
Cosmos 2369 3.7 22:38:46 10° NNW 22:44:32 76° ENE 22:46:58 36° SE
Cosmos 967 Rocket 4.3 22:39:06 10° SSW 22:45:20 76° ESE 22:51:38 10° NE
SPOT 1/Viking Rocket 3.9 22:44:17 27° S 22:47:02 58° WSW 22:52:09 10° NNW
Tiangong 2 2.6 22:44:02 10° WSW 22:45:36 26° WSW 22:45:36 26° WSW
COSMOS 2487 2.6 22:47:21 54° E 22:47:21 54° E 22:50:42 10° NNE
Cosmos 1437 Rocket 3.7 22:44:21 10° NNW 22:47:57 40° W 22:49:25 28° SW
Cosmos 1697 Rocket 3.2 22:48:49 10° NNW 22:54:14 47° ENE 22:56:25 32° ESE
IGS 5A 3.3 22:56:43 56° SSE 22:57:33 83° ENE 23:01:44 10° N
Cosmos 1452 Rocket 3.6 22:53:40 10° NNW 22:58:56 66° ENE 23:00:34 43° SE
ISS -3.3 22:56:14 10° WSW 22:59:28 58° NNW 23:02:44 10° NE
Cosmos 2218 Rocket 3.9 22:53:55 10° N 23:00:06 79° E 23:02:38 38° SSE
NOSS 8 (E) 4.5 23:01:42 70° ENE 23:01:42 70° ENE 23:05:11 10° NE
Cosmos 1892 Rocket 4.4 23:01:37 23° SW 23:04:03 47° WNW 23:08:20 10° N
Cosmos 1271 Rocket 4.0 23:02:15 10° NNE 23:05:37 28° ENE 23:05:37 28° ENE
Cosmos 2228 3.3 23:01:34 10° NNW 23:05:51 62° W 23:06:54 45° SSW
deb Chang Zheng 4 3.4 23:06:16 10° NNE 23:10:36 88° E 23:11:26 58° SSW
Cosmos 1602 Rocket 3.4 23:10:37 63° SE 23:11:01 68° E 23:15:20 10° NNE
Cosmos 921 Rocket 3.6 23:07:32 10° NNW 23:11:53 49° WSW 23:12:53 41° SW
Cosmos 1833 Rocket 2.6 23:11:23 44° S 23:13:07 67° ESE 23:18:43 10° NNE
Cosmos 1656 3.5 23:09:18 10° NNW 23:14:46 88° WSW 23:16:17 50° SSE
Cosmos 1066 Rocket 4.2 23:15:05 36° SSW 23:17:25 77° W 23:23:03 10° N
Lacrosse 5 rocket 4.3 23:15:49 10° NNW 23:18:47 17° NNE 23:21:47 10° NE
SL-19 R/B 4.2 23:15:16 10° NNE 23:20:42 78° WNW 23:22:49 37° SSW
Meteor 1-21 4.4 23:19:44 47° SE 23:20:56 56° E 23:26:32 10° NNE
Cosmos 468 4.4 23:24:11 56° SSE 23:25:09 70° ESE 23:30:25 10° NNE
CZ-4 R/B 3.9 23:20:05 10° NNE 23:25:09 86° W 23:26:31 50° SSW
Cosmos 1766 3.3 23:21:26 10° N 23:25:11 72° NE 23:25:11 72° NE
Meteor 1-4 Rocket 3.2 23:27:03 10° NNW 23:30:20 47° W 23:30:20 47° W
Nadezhda 3 Rocket 4.2 23:29:12 44° SE 23:30:49 56° E 23:37:01 10° NNE
USA 267 3.2 23:24:23 10° NE 23:30:53 62° SE 23:34:02 32° SSW
Meteor 2-14 Rocket 4.3 23:27:14 10° N 23:33:21 85° W 23:35:08 49° S
Cosmos 1758 4.3 23:30:26 10° N 23:33:51 37° ENE 23:33:51 37° ENE
H-2A R/B 3.7 23:33:29 18° SW 23:35:32 23° W 23:39:28 10° NW
Cosmos 1980 Rocket 2.3 23:35:29 10° NNW 23:41:09 66° ENE 23:42:26 51° ESE
SME Rocket 3.7 23:46:35 53° ESE 23:47:35 65° ENE 23:51:55 10° N
SeaSat 1 3.0 23:46:39 43° E 23:47:41 50° ENE 23:52:28 10° NNW
Cosmos 1821 Rocket 4.3 23:42:36 10° N 23:48:45 55° ENE 23:50:18 45° ESE
Cosmos 2322 Rocket 3.6 23:44:24 10° N 23:49:25 31° NE 23:51:42 23° E
